Simultaneous Nadir Overpasses (SNOs) Predictions

Prediction of SNOs between FY3D and NOAA-19 Satellite Orbit:

Table of predicted SNOs for the next 14.0 days since TLE Epoch: 6/16/2022
Index Date (FY3D) Time (FY3D) Lat,Lon (FY3D) SZA (FY3D ) Date (NOAA-19) Time (NOAA-19) Lat,Lon (NOAA-19) SZA (NOAA-19 ) Distance(km) Time Diff (sec)
1 06/17/2022 02:03:57 77.37, 132.85 54.51 06/17/2022 02:02:45 77.35, 131.76 54.59 26.54 72
2 06/17/2022 02:54:45 -77.50, -60.41 125.34 06/17/2022 02:53:37 -77.48, -60.33 125.34 2.51 68
3 06/17/2022 03:45:31 77.49, 106.96 54.65 06/17/2022 03:44:42 77.47, 106.84 54.66 3.23 49
4 06/17/2022 04:36:16 -77.48, -85.72 125.36 06/17/2022 04:35:37 -77.48, -85.85 125.34 3.26 39
5 06/17/2022 05:27:03 77.51, 81.45 54.68 06/17/2022 05:26:41 77.51, 81.53 54.68 1.94 22
6 06/17/2022 06:17:48 -77.51,-111.22 125.33 06/17/2022 06:17:36 -77.51,-111.17 125.33 1.39 12
7 06/17/2022 07:08:34 77.50, 56.14 54.66 06/17/2022 07:08:41 77.50, 56.01 54.67 3.24 7
8 06/17/2022 07:59:20 -77.54,-136.73 125.30 06/17/2022 07:59:36 -77.51,-136.69 125.33 3.30 16
9 06/17/2022 08:50:06 77.53, 30.63 54.69 06/17/2022 08:50:40 77.54, 30.69 54.69 1.95 34
10 06/17/2022 09:40:51 -77.52,-162.04 125.32 06/17/2022 09:41:35 -77.54,-162.00 125.31 2.61 44
11 06/17/2022 10:31:38 77.55, 5.13 54.73 06/17/2022 10:32:40 77.53, 5.17 54.69 2.36 62
12 06/17/2022 11:22:23 -77.55, 172.45 125.28 06/17/2022 11:23:35 -77.54, 172.48 125.32 1.21 72



Historial Predications of SNOs between FY3D and NOAA-19
